Showing default

GSAT 6A, 43241

Orbit data source: Space-Track

GSAT 6A, 43241 is a payload satellite owned by ISRO (IN) that was launched on Thu, 29 Mar 2018 UTC via a GSLV MK II launch vehicle from the Sirharikota (SRI). Payload-class satellites include a variety of spacecraft equipped with specific instruments for various scientific and technological missions. These include communications satellites like Starlink; space stations such as the ISS; scientific satellites like the Hubble; Earth observation satellites from companies like Planet Labs, Umbra, and HawkEye 360; GPS; miniature CubeSats for education and research; and military/defense satellites.

Loading next visibility...
Identifier
43241, 2018-027A
Orbit
Active
Country
Flag of ININ / IND
Related business
Manufacturer
ISRO
Mission
Non-operational Defense Communications
Bus & Motor
I2K, ISRO LAM
Mass
2,230 kg wet, 976 kg dry
Launch date (UTC)
2018-03-29 (8 years ago)
Launch vehicle
GSLV MK II
Launch site
Sirharikota (SRI)
Object type
Payload
Rocket body
Debris
Shape & HBR
Box + 2 Pan, 4.8 m
Radar Cross Section
8.526 m², Large (>1 m²)

Expand to show TLE details & history
Last TLE update: 2 days ago

TLE from 2 days ago
0 GSAT 6A
1 43241U 18027A   26171.32331470 -.00000110  00000-0  00000+0 0  9994
2 43241   3.2513  81.5038 1315811 112.4264 210.9407  1.19316271 35894
Epoch: 2026-06-20T07:45Z
TLE epoch observation values (Epoch: 2026-06-20T07:45:34.390Z)
Latitude
-2.22549°
Longitude
13.25154°
Altitude
35,543.195 km
Speed
2.899 km/s
True Right ascension
02h 32m 44s
True Declination
-2° 13' 24"
Sunlit
Object was in daylight at epoch
Visualization orbit readout
Latitude
Unknown
Longitude
Unknown
Altitude
Unknown
Speed
Unknown
Apparent Right ascension
Unknown
Apparent Declination
Unknown
Sunlit
N/A
Visualization observer readout
Local Sidereal Time
21:41:14
Azimuth
Unknown
Elevation
Unknown
Doppler factor
Unknown
Orbital elements
Apogee altitude
36,113.344 km
Perigee altitude
26,231.462 km
Semi-major axis
37,550.54 km
Eccentricity
0.13158
Inclination
3.2513°
RAAN
81.5038°
Arg. of periapsis
112.4264°
True anomaly
204.16601°
Mean anomaly
210.9407°
Eccentric anomaly
207.46379°
Mean motion
0.29828 °/min
Orbital period
1,206.93 mins
BSTAR
0
Loading maneuver chart data...
Computing Atmospheric mass density...
Loading historical data...
Loading historical data...
Loading historical data...
Loading historical data...
Loading historical data...
Loading historical data...
Loading historical data...
Other satellites on launch #27 in the year 2018 (2018-03-29 UTC)

Documentation

Showing up to 5 results
|